Flight Track Log - Related Links

Times and Time Zones

All times are in EDT time to prevent confusion due to time zone crossing. See the CHH7071 flight status page for this flight to view local times or setup timezone preferences in your user account.


Time Position Orientation Groundspeed Altitude Reporting Facility
EDT Latitude Longitude Course Direction KTS MPH feet Rate Location/Type
Wed 04:49:51 AM 22.8290 112.2150 28° Northeast 465 535 35,100  Level FlightAware ADS-B
Wed 04:50:27 AM 22.8820 112.2750 46° Northeast 466 536 35,100  Level FlightAware ADS-B
Wed 04:51:01 AM 22.9330 112.3320 46° Northeast 466 536 35,100  Level FlightAware ADS-B
Wed 04:51:35 AM 22.9840 112.3900 46° Northeast 466 536 35,100  Level FlightAware ADS-B
Wed 04:52:09 AM 23.0350 112.4470 46° Northeast 467 537 35,100  Level FlightAware ADS-B
Wed 04:52:26 AM 23.0550 112.4790 56° Northeast 463 533 35,100  Level FlightAware ADS-B
Wed 04:52:39 AM 23.0630 112.5050 72° East 460 529 35,100  Level FlightAware ADS-B
Wed 04:52:51 AM 23.0660 112.5370 84° East 456 525 35,100  Level FlightAware ADS-B
Wed 04:53:29 AM 23.0610 112.6220 94° East 455 524 35,100  Level FlightAware ADS-B
Wed 04:54:05 AM 23.0560 112.7010 94° East 455 524 35,100  Level FlightAware ADS-B
Wed 04:54:41 AM 23.0500 112.7840 94° East 456 525 35,100  Level FlightAware ADS-B
Wed 04:55:13 AM 23.0450 112.8600 94° East 456 525 35,100  Level FlightAware ADS-B
Wed 04:55:49 AM 23.0390 112.9400 95° East 456 525 35,100  Level FlightAware ADS-B
Wed 04:56:25 AM 23.0330 113.0250 94° East 456 525 35,100  Level FlightAware ADS-B
Wed 04:57:01 AM 23.0280 113.1050 94° East 457 526 35,100  Level FlightAware ADS-B
Wed 04:57:33 AM 23.0230 113.1790 94° East 459 528 35,100  Level FlightAware ADS-B
Wed 04:58:09 AM 23.0290 113.2610 85° East 462 532 35,100  Level FlightAware ADS-B
Wed 04:58:45 AM 23.0380 113.3450 83° East 463 533 35,100  Level FlightAware ADS-B
Wed 04:59:21 AM 23.0470 113.4260 83° East 463 533 35,100  Level FlightAware ADS-B
Wed 04:59:57 AM 23.0560 113.5100 83° East 463 533 35,100  Level FlightAware ADS-B
Wed 05:00:28 AM 23.0630 113.5810 84° East 463 533 35,100  Level FlightAware ADS-B
Wed 05:01:05 AM 23.0730 113.6670 83° East 464 534 35,100  Level FlightAware ADS-B
Wed 05:01:41 AM 23.0810 113.7510 84° East 463 533 35,100  Level FlightAware ADS-B
Wed 05:02:17 AM 23.0960 113.8330 79° East 467 537 35,100  Level FlightAware ADS-B
Wed 05:02:29 AM 23.1090 113.8580 61° Northeast 469 540 35,100  Level FlightAware ADS-B
Wed 05:02:45 AM 23.1330 113.8850 46° Northeast 470 541 35,100  Level FlightAware ADS-B
Wed 05:03:17 AM 23.1880 113.9320 38° Northeast 470 541 35,100  Level FlightAware ADS-B
Wed 05:03:51 AM 23.2450 113.9810 38° Northeast 470 541 35,100  Level FlightAware ADS-B
Wed 05:04:29 AM 23.3100 114.0360 38° Northeast 470 541 35,100  Level FlightAware ADS-B
Wed 05:05:01 AM 23.3660 114.0840 38° Northeast 469 540 35,100  Level FlightAware ADS-B
Wed 05:05:39 AM 23.4300 114.1390 38° Northeast 470 541 35,100  Level FlightAware ADS-B
Wed 05:06:15 AM 23.4890 114.1900 38° Northeast 470 541 35,100  Level FlightAware ADS-B
Wed 05:06:47 AM 23.5470 114.2390 38° Northeast 470 541 35,100  Level FlightAware ADS-B
Wed 05:07:23 AM 23.6080 114.2910 38° Northeast 471 542 35,100  Level FlightAware ADS-B
Wed 05:07:51 AM 23.6520 114.3390 45° Northeast 470 541 35,100  Level FlightAware ADS-B
Wed 05:08:26 AM 23.6960 114.4030 53° Northeast 471 542 35,100  Level FlightAware ADS-B
Wed 05:09:00 AM 23.7420 114.4650 51° Northeast 473 544 35,100  Level FlightAware ADS-B
Wed 05:09:35 AM 23.8020 114.5220 41° Northeast 474 545 35,100  Level FlightAware ADS-B
Wed 05:10:08 AM 23.8590 114.5690 37° Northeast 476 548 35,100  Level FlightAware ADS-B
Wed 05:10:43 AM 23.9230 114.6210 37° Northeast 477 549 35,100  Level FlightAware ADS-B
Wed 05:11:27 AM 23.9970 114.6820 37° Northeast 478 550 35,100  Level FlightAware ADS-B
Wed 05:12:01 AM 24.0600 114.7340 37° Northeast 478 550 35,100  Level FlightAware ADS-B
Wed 05:12:39 AM 24.1260 114.7880 37° Northeast 479 551 35,100  Level FlightAware ADS-B
Wed 05:13:33 AM 24.2080 114.8560 37° Northeast 477 549 35,100  Level FlightAware ADS-B
Wed 05:14:09 AM 24.2620 114.9010 37° Northeast 477 549 35,100  Level FlightAware ADS-B
Wed 05:14:45 AM 24.3160 114.9450 37° Northeast 477 549 35,100  Level FlightAware ADS-B
Wed 05:14:59 AM 24.4010 114.9350 354° North 472 543 35,100  Level FlightAware ADS-B
Wed 05:15:37 AM 24.4710 114.9520 12° North 472 543 35,100 -618 Level FlightAware ADS-B
Wed 05:16:07 AM 24.5370 114.9680 12° North 466 536 34,400 -592 Descending FlightAware ADS-B
Wed 05:16:48 AM 24.6100 114.9860 13° North 466 536 34,400  Level FlightAware ADS-B
Wed 05:17:24 AM 24.6750 115.0010 12° North 466 536 34,400  Level FlightAware ADS-B
Wed 05:18:01 AM 24.7410 115.0160 12° North 466 536 34,400  Level FlightAware ADS-B
Wed 05:18:35 AM 24.8020 115.0300 12° North 466 536 34,400  Level FlightAware ADS-B
Wed 05:19:11 AM 24.8670 115.0460 13° North 466 536 34,400  Level FlightAware ADS-B
Wed 05:19:47 AM 24.9310 115.0610 12° North 466 536 34,400  Level FlightAware ADS-B
Wed 05:20:21 AM 24.9920 115.0750 12° North 466 536 34,400  Level FlightAware ADS-B
Wed 05:20:57 AM 25.0570 115.0900 12° North 466 536 34,400  Level FlightAware ADS-B
Wed 05:21:34 AM 25.1230 115.1060 12° North 466 536 34,400  Level FlightAware ADS-B
Wed 05:22:10 AM 25.1870 115.1210 12° North 466 536 34,400  Level FlightAware ADS-B
Wed 05:22:46 AM 25.2520 115.1360 12° North 466 536 34,400  Level FlightAware ADS-B
Wed 05:23:22 AM 25.3160 115.1510 12° North 466 536 34,400  Level FlightAware ADS-B
Wed 05:23:58 AM 25.3810 115.1660 12° North 466 536 34,400  Level FlightAware ADS-B
Wed 05:24:35 AM 25.4470 115.1820 12° North 466 536 34,400  Level FlightAware ADS-B
Wed 05:25:11 AM 25.5120 115.1970 12° North 466 536 34,400  Level FlightAware ADS-B
Wed 05:25:47 AM 25.5760 115.2120 12° North 466 536 34,400  Level FlightAware ADS-B

Login

Don't have an account? Register now (free) for customized features, flight alerts, and more!